Find Starlink 3080

NORAD ID: 49161 Int'l Des: 2021-082 Owner: SPXS Country: US Constellation: starlink operational
LEOCIRCULAR

Live Position

Loading 3D Globe...

About Starlink 3080

Description loading...

Upcoming Passes

Passes for default location (London). Set your location on the main map for personalized predictions.

Altitude History

Loading altitude history...

Two-Line Element Set

1 49161U 21082AH 26104.53068118 -.00000391 00000-0 -24978-4 0 9998
2 49161 70.0005 204.0648 0003637 266.9072 93.1671 14.98329683252425
Epoch: Apr 14, 2026 • Age: 10 hours

Current Status

Altitude 574.7 km
Velocity 7.57 km/s
Sub-Earth Point -3.71°S, 166.33°W
Launch Date Sep 14, 2021
Age 4.5 years
Type internet

Technical Details

Classification Payload
Mass 297.00 kg
Dry Mass 275.00 kg
Total Mass 297.00 kg
Length 0.20 m
Diameter 2.80 m
Span 9.00 m
Shape Box + pan
Manufacturer SPXS
Bus Type Starlink
Phase Status In Orbit
Owner/State SPXS/US

Most Searched